Theta_e
316 309 308 304 297 291 287 289 292 291 292 298 299 297 297 300 298 293 313 327 338 339 344 345 349 350 351 351 351 349 349 347 345 342 341 340 338 337 336 337 337 337 338 338 340 340 339 340 340
312 310 305 297 291 285 287 289 291 292 298 300 299 298 301 300 309 314 320 329 340 342 345 345 345 348 351 351 349 348 348 347 343 342 340 339 337 336 335 335 335 336 336 336 340 337 338 338 338
310 306 302 293 286 286 286 289 292 294 299 295 299 303 302 303 309 314 319 335 342 342 344 344 345 350 351 351 349 348 346 347 343 341 339 338 336 333 332 332 332 333 334 335 336 334 335 335 336
305 302 296 290 287 288 291 291 294 295 295 298 300 300 305 313 311 316 334 340 340 341 343 343 347 350 351 350 349 348 347 346 343 340 339 336 335 332 330 329 328 328 328 330 331 331 329 330 332
298 296 291 287 287 290 289 292 294 293 292 294 296 298 303 312 317 322 335 339 338 340 342 342 345 347 349 349 348 347 346 346 342 339 337 336 334 333 330 327 325 324 324 324 325 326 325 325 327
296 293 288 285 287 290 293 293 294 292 293 296 299 302 304 308 314 321 334 335 338 341 342 342 338 340 343 345 346 346 345 344 341 339 337 336 336 334 333 330 329 328 327 325 323 322 321 321 321
293 289 286 286 286 289 292 294 292 292 293 295 301 298 302 306 316 322 330 330 333 339 341 342 340 338 337 340 340 342 343 342 341 340 338 336 336 335 333 332 331 330 329 328 326 323 321 319 318
292 290 286 285 287 288 293 293 293 293 292 297 297 296 300 309 320 322 325 323 323 330 338 339 337 338 340 339 334 336 338 339 338 337 334 332 332 332 330 329 331 330 328 327 326 325 324 320 318
291 286 284 285 288 290 292 292 293 293 294 293 295 298 300 310 318 316 315 314 316 316 320 334 338 338 338 337 334 333 334 334 333 332 328 327 328 326 325 327 330 329 327 326 325 323 320 319 318
289 284 286 289 288 292 292 292 294 293 292 292 294 296 300 315 315 316 316 315 312 311 311 318 334 333 336 338 335 337 336 336 334 331 329 329 328 327 322 319 322 323 324 324 323 321 317 312 307
289 287 289 289 292 293 292 291 294 292 290 294 295 296 300 311 314 316 315 313 312 306 309 312 317 328 336 334 332 336 336 334 331 329 329 326 325 322 320 319 316 313 313 309 309 307 306 306 307
290 291 291 293 294 293 291 293 291 292 294 294 296 298 298 308 313 314 312 307 305 306 307 310 312 325 331 333 332 333 335 332 329 328 326 324 322 320 318 315 312 311 309 304 301 300 300 300 302
292 290 293 294 294 292 294 293 293 292 294 295 294 298 298 301 307 305 307 304 304 305 306 309 312 325 325 326 327 328 328 329 329 327 325 324 320 316 314 310 308 307 302 298 296 297 299 300 303
290 292 292 294 294 293 293 291 292 294 294 294 295 296 297 299 302 299 301 302 303 304 305 309 318 322 321 319 318 317 319 321 325 326 324 322 318 314 309 306 304 299 296 292 292 295 298 298 299
292 291 292 293 292 293 293 292 291 292 293 294 294 294 295 296 298 300 301 301 302 302 304 307 311 315 315 313 312 312 314 315 315 317 319 318 315 310 304 301 297 294 292 290 291 293 296 296 297
290 289 286 290 292 292 293 288 293 292 293 293 292 292 293 295 296 297 299 300 300 301 303 305 309 308 309 308 308 308 307 308 308 307 308 308 306 303 299 296 293 292 291 289 291 291 293 293 293
286 283 284 289 292 290 290 289 291 290 291 292 291 292 292 292 293 294 297 298 299 300 300 304 304 306 305 303 302 302 301 301 302 302 303 302 300 299 296 294 293 291 290 290 291 287 292 292 290
283 282 284 285 289 289 288 289 292 291 291 292 291 291 291 292 295 294 296 297 297 297 298 301 303 303 301 299 298 297 297 296 298 298 297 297 297 295 294 292 291 290 288 288 288 288 285 286 288
287 285 285 287 291 288 288 288 293 293 290 291 291 291 292 293 296 294 295 295 295 294 295 298 300 299 299 298 297 296 292 292 292 293 294 294 293 292 290 289 288 288 287 286 285 284 285 282 282
287 285 285 289 291 289 289 289 292 294 291 293 295 295 294 293 290 292 293 294 297 296 296 299 297 297 299 299 296 294 293 290 289 290 289 289 289 289 288 287 286 286 285 284 282 282 280 280 280
285 285 285 287 288 288 286 286 288 291 293 294 294 297 297 293 289 291 292 295 297 295 296 298 298 299 299 294 292 290 289 289 288 287 287 287 287 287 286 286 285 284 284 281 280 280 280 279 279
284 289 288 287 285 282 286 282 287 290 291 290 294 295 292 291 290 292 293 294 295 297 298 298 298 297 294 294 292 292 292 289 287 286 286 286 286 286 286 285 284 283 281 280 280 280 280 279 279
287 289 288 286 284 281 281 281 284 287 287 291 294 293 292 290 290 291 293 294 296 298 298 297 297 294 292 291 293 293 291 287 286 285 285 285 285 285 285 284 283 281 281 279 279 279 279 279 279
291 288 287 284 283 279 283 284 290 286 289 290 291 291 291 289 288 290 291 293 295 295 298 297 295 292 292 291 292 291 286 285 284 284 283 283 284 283 283 282 281 280 279 278 278 278 278 278 278
287 286 280 278 277 279 281 281 290 291 291 290 292 290 290 288 287 288 289 293 294 296 296 295 293 290 291 291 289 288 287 286 285 284 283 282 282 281 281 281 280 279 278 278 278 278 277 277 277
286 286 281 274 275 278 282 279 285 290 291 291 289 288 287 285 287 287 288 292 295 296 295 293 292 290 290 288 287 287 287 286 285 285 284 283 282 281 281 280 278 277 277 277 277 276 276 276 276
285 283 289 282 270 275 280 283 289 290 290 290 290 287 287 285 286 287 288 290 293 294 293 293 291 290 288 287 286 286 286 285 284 284 283 282 281 280 279 278 277 276 276 276 276 276 275 275 276
288 290 283 282 275 274 278 280 285 287 288 289 288 288 286 284 285 286 286 288 289 291 291 292 291 290 288 287 287 286 285 285 284 283 281 280 280 279 277 276 276 276 275 275 275 275 275 275 275
286 285 286 287 282 275 272 281 286 288 289 289 288 288 286 285 285 284 285 286 288 288 290 290 290 288 287 287 286 285 284 284 283 282 281 280 279 278 276 276 276 276 275 275 275 275 275 275 275
288 287 288 284 279 280 279 283 289 289 288 288 288 287 284 284 284 283 283 283 283 285 286 288 288 288 287 287 285 284 283 282 282 280 280 279 278 278 276 276 276 275 275 275 275 275 275 274 274
Wind_Speed
4 4 3 6 6 6 1 3 1 2 2 0 4 4 6 2 4 4 3 6 5 8 6 7 11 12 12 12 12 12 13 14 14 14 14 15 15 16 17 16 15 17 16 16 17 18 18 18 20
3 1 6 3 6 3 5 3 4 4 5 6 5 3 4 1 1 1 3 5 5 8 6 7 11 12 13 13 12 12 12 15 13 14 14 15 15 16 16 16 16 16 16 16 17 17 15 18 19
2 4 5 6 4 4 5 4 5 1 6 1 4 4 3 2 0 3 2 8 8 7 6 7 11 12 12 12 13 12 12 14 14 14 14 15 15 15 16 16 16 15 17 17 17 17 17 17 18
2 5 6 5 3 3 3 4 5 5 3 1 4 5 1 1 1 2 7 7 9 6 6 8 10 12 12 11 12 12 13 14 14 14 15 15 15 15 15 16 16 16 17 18 17 17 18 18 18
5 4 5 3 3 3 4 2 6 5 2 2 2 4 2 0 3 3 7 7 9 7 6 7 10 11 11 11 11 12 13 14 16 15 15 15 15 16 16 16 16 17 18 18 17 18 18 19 18
5 4 5 2 4 3 2 5 5 4 4 3 4 6 4 3 2 5 6 7 8 10 9 7 8 10 12 12 11 11 12 14 15 15 15 16 16 16 16 16 16 17 17 18 18 18 18 18 18
7 5 4 4 3 2 4 7 5 5 5 5 8 6 3 2 3 5 6 4 4 4 8 8 7 8 10 11 10 12 13 14 15 14 14 14 14 14 14 14 16 17 17 17 17 18 18 18 18
6 6 4 2 5 5 4 5 3 6 4 3 2 5 5 5 6 6 6 5 5 3 5 6 7 7 7 7 10 10 12 13 14 13 14 11 11 11 11 10 13 15 16 17 17 17 18 18 18
3 6 2 5 7 5 3 4 2 2 6 0 2 4 3 5 8 6 4 3 3 3 4 3 6 6 7 7 7 11 14 14 12 10 9 11 5 6 6 8 11 14 16 17 18 18 17 17 18
6 4 9 5 4 3 3 3 6 3 2 4 3 2 2 5 6 8 7 7 4 3 3 3 2 5 4 5 7 5 8 8 7 7 5 5 6 5 7 9 13 15 13 15 17 17 15 11 5
2 4 4 2 3 2 2 1 5 7 4 8 10 7 7 5 7 8 7 7 7 3 2 4 3 2 4 5 3 3 4 6 6 8 6 6 5 4 4 3 4 4 8 4 6 7 5 6 5
1 1 2 1 2 1 2 1 3 7 7 1 9 7 7 10 11 10 9 7 6 5 3 2 2 1 3 3 4 4 4 6 6 6 8 6 4 4 4 4 4 5 3 5 4 3 6 7 7
2 1 1 3 3 2 0 6 6 7 7 1 4 8 10 8 6 4 5 5 6 5 4 0 1 2 3 4 3 3 4 6 6 7 7 6 5 5 5 4 4 4 5 4 4 4 6 8 9
1 1 3 4 4 3 4 4 4 8 5 4 7 11 9 10 10 4 6 7 7 5 4 0 2 3 3 3 3 3 2 5 5 6 6 7 6 6 6 4 5 4 5 4 4 3 8 7 9
1 4 6 5 2 5 4 9 11 5 3 6 8 8 8 10 8 10 8 8 8 4 4 3 3 4 5 5 4 4 3 3 5 5 6 8 7 7 7 4 5 4 5 6 5 4 8 9 9
3 5 3 3 4 2 6 12 5 2 7 10 9 8 9 9 10 8 7 7 7 5 6 5 4 5 5 6 4 5 4 4 5 5 6 8 10 9 7 5 5 4 5 4 6 3 9 8 8
5 4 4 9 5 2 4 9 3 1 5 9 8 10 9 9 9 9 8 8 7 7 7 6 6 6 7 7 6 6 6 5 4 5 6 7 9 9 8 5 3 5 5 5 6 4 6 9 7
7 5 5 6 3 4 5 14 11 4 7 11 10 9 11 13 20 9 8 7 6 6 6 6 5 8 8 6 6 6 6 6 4 5 5 9 7 10 10 6 3 4 5 8 5 8 6 5 6
5 4 5 4 3 4 9 9 17 8 6 11 12 13 16 18 12 8 8 8 7 6 7 8 8 9 8 6 4 4 4 4 5 6 6 9 9 7 8 6 4 3 7 8 6 4 9 5 3
3 4 6 7 4 6 9 14 15 16 10 13 18 18 20 13 7 8 9 9 10 9 9 9 8 10 7 5 4 4 5 4 5 4 7 7 8 8 6 8 6 4 9 8 5 4 5 4 4
5 7 5 8 5 4 6 10 8 9 10 14 17 21 12 10 10 10 12 15 12 11 10 10 9 9 7 9 8 7 8 6 4 4 6 5 7 8 8 7 7 5 6 6 5 5 6 5 4
6 8 6 4 2 6 3 15 7 8 10 6 16 14 8 9 9 11 15 14 15 12 9 10 10 9 8 11 8 12 6 6 4 5 6 6 7 8 8 7 8 7 6 7 5 4 4 4 6
6 5 6 2 3 3 3 4 3 3 3 13 10 7 9 9 10 14 17 15 14 12 11 10 10 9 9 7 9 8 9 7 7 7 10 8 7 7 7 7 9 9 7 7 8 7 7 4 4
8 7 7 4 1 5 9 8 20 4 7 4 4 1 3 4 7 6 6 9 12 8 10 10 11 10 10 9 9 10 13 13 11 10 9 6 6 5 8 9 9 8 9 8 7 8 9 8 8
1 7 2 4 1 9 1 6 16 7 7 5 9 4 7 4 4 6 10 12 13 13 12 10 12 11 12 11 9 11 13 13 13 13 11 11 8 6 7 9 9 8 8 8 8 8 8 6 8
9 9 8 8 5 5 1 10 8 9 9 7 3 3 3 1 4 7 7 10 13 14 13 12 12 10 12 11 10 10 12 8 8 9 9 8 7 8 7 9 10 10 9 8 8 7 7 7 7
7 6 6 6 2 2 7 8 9 10 11 7 7 5 6 3 5 7 7 10 11 12 12 13 12 10 10 10 10 11 11 12 9 10 7 6 8 7 9 8 11 9 9 8 7 7 8 8 7
7 7 4 2 4 7 6 7 11 6 5 6 6 7 5 3 5 6 6 7 7 9 11 11 12 13 12 11 10 10 11 12 11 10 9 9 10 11 12 11 11 10 9 8 9 8 7 9 5
5 5 2 6 5 5 3 9 8 9 4 4 6 6 4 5 6 6 6 6 7 6 9 11 13 14 13 12 11 12 10 11 11 11 10 11 11 11 11 10 11 10 10 8 8 8 8 9 7
1 6 6 6 6 4 2 16 4 6 5 4 5 4 1 4 5 6 6 6 6 6 7 10 11 13 13 13 12 13 12 13 12 12 12 11 11 10 10 9 11 10 9 9 9 9 7 9 8
Wind_Direction
359 26 65 42 51 64 259 251 277 166 100 261 87 135 161 86 150 202 275 179 145 138 144 137 136 143 137 126 121 121 116 100 97 91 86 86 84 78 74 73 73 71 71 73 72 71 69 76 75
10 12 44 77 86 66 270 259 204 209 162 139 85 80 55 105 223 145 114 169 143 136 135 134 137 139 138 135 132 131 122 117 101 94 93 87 85 80 78 76 74 74 77 77 75 75 70 79 75
134 40 81 89 103 177 210 217 194 138 144 183 101 58 131 154 0 175 232 149 130 130 132 137 138 138 139 138 135 137 130 116 108 104 98 92 88 85 82 80 79 81 78 76 77 79 75 74 75
78 17 41 83 227 238 213 189 177 126 245 98 126 81 309 261 186 247 140 136 129 134 133 147 144 142 143 140 137 137 135 121 113 111 106 102 96 91 89 87 82 79 78 78 78 77 72 72 74
35 55 64 80 279 264 250 198 157 160 188 133 165 189 176 40 320 138 148 147 146 152 145 155 155 148 147 143 143 143 138 125 123 120 113 107 101 94 89 86 84 81 79 78 77 76 73 71 72
46 95 68 197 255 263 252 159 154 177 162 163 90 142 208 327 199 176 165 178 168 158 161 161 167 162 156 149 147 144 140 133 127 122 115 108 102 96 93 90 85 81 79 76 75 73 73 73 73
112 85 189 176 245 303 214 148 171 176 157 225 157 135 263 281 170 154 167 139 145 184 161 165 165 168 161 151 150 146 142 137 130 127 119 110 104 99 94 90 88 83 80 78 77 75 74 75 73
103 92 127 209 193 244 192 183 135 160 199 95 141 193 221 212 146 108 98 89 71 33 147 170 162 164 156 150 144 143 142 139 138 134 126 116 107 100 96 92 95 94 88 83 79 77 77 77 75
131 66 181 214 159 238 175 168 146 66 112 180 223 168 283 133 121 105 105 86 80 43 64 111 148 155 150 149 153 152 152 145 132 120 122 120 115 106 88 84 84 94 95 92 85 78 73 70 71
84 109 217 199 198 227 201 183 176 141 123 240 270 233 125 143 153 153 164 160 150 161 65 44 91 149 156 149 153 139 146 141 133 132 131 117 113 99 87 72 64 62 57 76 87 80 74 67 61
142 177 203 232 221 215 202 233 171 129 226 218 204 187 168 167 175 172 176 171 170 145 87 41 26 115 171 139 133 134 154 140 140 143 131 116 111 100 88 79 89 73 62 46 44 75 63 65 67
77 231 189 257 243 150 193 118 236 185 230 199 225 174 164 173 188 187 179 168 155 148 134 58 335 88 113 124 157 145 153 143 150 145 131 129 118 102 91 83 66 83 74 73 46 61 74 65 62
157 238 270 283 271 252 19 245 230 243 238 5 134 161 185 192 194 175 164 160 158 171 168 64 335 96 103 97 104 134 157 159 152 141 135 132 129 120 108 95 77 78 81 63 45 56 80 70 71
355 307 286 288 270 243 198 260 140 252 156 167 175 198 199 198 192 154 179 182 183 175 182 238 105 107 99 86 87 94 97 117 129 137 142 130 127 121 109 100 95 82 87 86 71 56 87 75 82
72 323 327 237 247 245 155 287 232 220 154 202 214 214 218 221 190 203 192 189 177 185 165 167 121 82 97 97 79 76 61 74 95 100 107 122 118 113 110 98 101 98 87 85 80 71 83 85 83
51 45 354 299 143 303 147 270 277 182 165 224 222 226 231 232 218 212 198 188 183 160 173 149 137 109 95 100 89 87 50 75 79 83 85 102 107 108 105 113 103 116 94 91 93 83 91 83 86
360 234 212 315 198 114 176 269 269 100 197 252 240 233 234 248 244 226 199 189 180 170 161 154 138 122 113 100 91 80 75 62 75 83 97 91 104 99 92 80 47 87 101 91 101 70 93 101 92
201 211 230 230 215 183 228 261 265 221 202 239 246 241 235 233 234 201 183 175 167 168 161 148 137 134 118 107 97 84 76 65 63 81 88 100 102 103 109 101 138 103 121 100 87 102 64 83 105
139 187 229 242 242 198 230 246 263 235 226 259 245 239 237 226 226 165 170 166 162 166 164 165 153 148 140 136 125 104 102 99 80 72 117 111 110 129 129 115 90 90 114 110 119 108 97 59 30
162 214 254 285 228 192 268 255 245 260 223 218 239 240 234 221 172 170 168 170 183 177 180 170 165 161 160 143 111 117 127 85 86 106 88 99 113 116 118 117 112 131 112 101 105 118 114 88 4
212 197 221 233 323 255 314 264 231 260 252 246 247 248 254 213 185 182 183 187 184 184 179 171 163 164 152 120 109 99 93 104 92 100 89 86 102 115 100 117 115 112 89 104 108 105 110 128 35
236 206 178 216 57 256 8 291 187 225 242 236 249 256 240 194 185 188 186 189 192 185 168 164 162 156 143 146 138 154 152 150 143 132 116 103 98 92 106 110 100 94 89 89 86 75 94 122 127
222 129 175 161 194 341 334 283 102 111 262 257 268 259 247 219 189 190 194 190 182 174 168 162 159 146 144 154 159 156 140 114 118 123 119 113 102 104 104 99 98 85 85 75 82 77 72 57 95
147 82 53 47 54 274 190 176 286 182 215 271 282 69 326 242 207 186 162 147 171 160 160 158 157 156 153 157 162 157 142 142 142 147 130 137 121 113 105 100 100 100 97 95 92 88 85 90 87
108 102 314 329 342 241 344 231 260 297 265 216 261 333 306 285 181 158 152 166 172 167 164 159 162 160 163 163 157 148 146 149 154 151 142 154 138 137 131 124 110 97 94 90 93 92 87 86 95
197 166 160 221 215 276 39 241 257 235 274 271 303 280 289 245 168 161 169 170 175 169 165 166 166 162 165 157 150 146 145 148 149 157 154 147 137 129 125 116 109 108 105 98 96 94 94 95 93
192 202 159 99 41 30 231 285 291 263 273 301 304 265 284 225 188 174 164 169 169 170 167 164 161 160 161 158 148 151 150 152 152 136 128 124 118 119 118 109 106 101 101 99 99 98 96 92 90
154 171 107 44 188 242 284 272 232 274 263 317 338 321 279 192 181 170 168 174 170 161 158 158 165 166 164 158 157 157 155 147 141 131 130 151 133 137 137 135 128 122 114 111 111 107 102 103 94
149 194 134 120 160 180 293 258 215 221 202 255 290 293 247 209 197 182 175 172 168 156 164 163 162 161 161 161 159 156 156 147 145 144 149 152 142 144 136 136 128 124 120 116 115 116 118 112 113
276 208 156 158 203 232 167 263 187 194 195 234 312 337 238 189 189 174 168 160 161 175 166 171 169 168 168 163 157 158 153 151 155 156 154 148 149 147 134 136 126 126 128 129 131 128 131 128 134